This demonstration page uses our WeatherBlox Daily Observations layout. Learn more.

Left ArrowRight Arrow

39.92423, -83.80882

Hourly Observations for November 28, 2018

Temp ( °F °C ) Dew Point ( °F °C ) Humidity (%) Winds ( mph kmh ) Pressure ( in mb ) Visibility ( mi km ) Precip ( " mm )
12:56 am 00:56 Cloudy with Light Snow 22 -5.6 18 -7.8 85 85 W 13 20 30.01 1016 9 14.48406 N/A
1:56 am 01:56 Cloudy with Light Snow 22 -5.6 18 -7.8 85 85 W 14 22 30.01 1016 9 14.48406 N/A
2:56 am 02:56 Cloudy with Light Snow 22 -5.6 18 -7.8 85 85 W 13 20 30.03 1017 9 14.48406 N/A
3:56 am 03:56 Cloudy with Light Snow 20 -6.7 16 -8.9 85 85 W 13 20 30.05 1018 9 14.48406 N/A
4:56 am 04:56 Cloudy with Light Snow 20 -6.7 16 -8.9 85 85 W 12 19 30.06 1018 9 14.48406 N/A
5:56 am 05:56 Cloudy with Light Snow 20 -6.7 17 -8.3 89 89 W 14 22 30.06 1018 9 14.48406 N/A
6:24 am 06:24 Cloudy with Light Snow 19 -7 18 -8 93 93 W 12 19 30.12 1020 9 14.48406 N/A
6:56 am 06:56 Cloudy with Light Snow 20 -6.7 17 -8.3 89 89 W 13 20 30.08 1019 9 14.48406 N/A
7:38 am 07:38 Cloudy with Light Snow 19 -7 18 -8 93 93 W 13 20 30.12 1020 9 14.48406 N/A
7:56 am 07:56 Cloudy with Light Snow 20 -6.7 17 -8.3 89 89 W 13 20 30.1 1019 9 14.48406 N/A
8:45 am 08:45 Cloudy with Light Snow 21 -6 18 -8 86 86 W 16 26 30.15 1021 9 14.48406 N/A
8:56 am 08:56 Cloudy with Light Snow 20 -6.7 17 -8.3 89 89 W 13 20 30.12 1020 8 12.87472 N/A
9:18 am 09:18 Cloudy with Light Snow 21 -6 18 -8 86 86 W 15 24 30.18 1022 9 14.48406 N/A
9:56 am 09:56 Mostly Cloudy 22 -5.6 17 -8.3 82 82 W 14 22 30.14 1021 9 14.48406 N/A
10:03 am 10:03 Partly Cloudy 21 -6 18 -8 86 86 W 14 22 30.18 1022 10 16.0934 N/A
10:48 am 10:48 Mostly Cloudy 23 -5 18 -8 80 80 WSW 12 19 30.18 1022 10 16.0934 N/A
10:56 am 10:56 Partly Cloudy 22 -5.6 17 -8.3 82 82 WSW 9 15 30.14 1021 10 16.0934 N/A
11:20 am 11:20 Mostly Cloudy 23 -5 18 -8 80 80 WSW 14 22 30.18 1022 10 16.0934 N/A
11:56 am 11:56 Cloudy 22 -5.6 18 -7.8 85 85 WSW 14 22 30.14 1021 10 16.0934 N/A
1:56 pm 13:56 Cloudy 24 -4.4 18 -7.8 77 77 WSW 13 20 30.11 1020 10 16.0934 N/A
2:56 pm 14:56 Cloudy 24 -4.4 19 -7.2 81 81 WSW 13 20 30.12 1020 10 16.0934 N/A
3:56 pm 15:56 Cloudy 23 -5 19 -7.2 85 85 W 13 20 30.14 1021 10 16.0934 N/A
4:56 pm 16:56 Cloudy 23 -5 19 -7.2 85 85 W 13 20 30.13 1020 10 16.0934 N/A
5:56 pm 17:56 Cloudy 23 -5 19 -7.2 85 85 W 7 11 30.14 1021 10 16.0934 N/A
6:56 pm 18:56 Cloudy 23 -5 19 -7.2 85 85 N N/A 30.14 1021 10 16.0934 N/A
7:56 pm 19:56 Cloudy 23 -5 19 -7.2 85 85 N N/A 30.14 1021 10 16.0934 N/A
8:16 pm 20:16 Partly Cloudy 21 -6 19 -7 93 93 N N/A 30.18 1022 10 16.0934 N/A
8:56 pm 20:56 Clear 20 -6.7 17 -8.3 89 89 N N/A 30.15 1021 10 16.0934 N/A
9:56 pm 21:56 Clear 18 -7.8 17 -8.3 96 96 N N/A 30.16 1021 10 16.0934 N/A
10:56 pm 22:56 Clear 19 -7.2 17 -8.3 92 92 ESE 5 7 30.12 1020 10 16.0934 N/A
11:56 pm 23:56 Mostly Cloudy 21 -6.1 19 -7.2 92 92 N N/A 30.13 1020 10 16.0934 N/A

Powered by AerisWeather